logo tempoitalia

Diretta Meteo Bay City, Stati Uniti (USA)lunedì 31 agosto ore 01:35

Mappa
Sereno 25 °C Sereno 24 Ore: T.min 22 T.max 35
Ponente Nord Km/h 0 Punto di rugiada: 25 °C Umidità: 100% Visibilità: 10 Km
Il sole sorge alle: 07:00 Il sole tramonta alle: 19:46
31 Agosto 2026 01:35 tempo osservato: Sereno Sereno 25 100 1014 vento: Nord N 0
31 Agosto 2026 01:15 tempo osservato: Sereno Sereno 25 100 1014 vento: Nord N 0
31 Agosto 2026 00:55 tempo osservato: Sereno Sereno 25 100 1014 vento: Nord N 5.5
31 Agosto 2026 00:35 tempo osservato: Sereno Sereno 25 100 1014 vento: Nord N 5.5
31 Agosto 2026 00:15 tempo osservato: Sereno Sereno 25 100 1014 vento: Nord N 5.5
30 Agosto 2026 23:55 tempo osservato: Sereno Sereno 25 100 1014 vento: Nord N 5.5
30 Agosto 2026 23:35 tempo osservato: Sereno Sereno 25 100 1014 vento: Nord N 5.5
30 Agosto 2026 23:15 tempo osservato: Sereno Sereno 26 100 1014 vento: Nord N 5.5
30 Agosto 2026 22:55 tempo osservato: Sereno Sereno 26 100 1014 vento: Nord E/SE 9.3
30 Agosto 2026 22:35 tempo osservato: Sereno Sereno 26 100 1013 vento: Nord SE 9.3
30 Agosto 2026 22:15 tempo osservato: Sereno Sereno 26 94 1013 vento: Nord SE 7.4
30 Agosto 2026 21:55 tempo osservato: Sereno Sereno 26 94 1013 vento: Nord SE 7.4
30 Agosto 2026 21:35 tempo osservato: Sereno Sereno 27 88 1013 vento: Nord S/SE 7.4
30 Agosto 2026 21:15 tempo osservato: Sereno Sereno 27 88 1012 vento: Nord N 5.5
30 Agosto 2026 20:55 tempo osservato: Sereno Sereno 27 88 1012 vento: Nord E/SE 7.4
30 Agosto 2026 20:35 tempo osservato: Sereno Sereno 27 88 1012 vento: Nord E/SE 11.1
30 Agosto 2026 20:15 tempo osservato: Sereno Sereno 28 83 1012 vento: Nord SE 11.1
30 Agosto 2026 19:55 tempo osservato: Sereno Sereno 29 74 1012 vento: Nord SE 9.3
30 Agosto 2026 19:35 tempo osservato: Sereno Sereno 30 70 1012 vento: Nord SE 13
30 Agosto 2026 19:15 tempo osservato: Sereno Sereno 31 66 1012 vento: Nord S/SE 14.8
30 Agosto 2026 18:55 tempo osservato: Sereno Sereno 31 66 1012 vento: Nord S/SE 16.7
30 Agosto 2026 18:35 tempo osservato: Sereno Sereno 32 62 1012 vento: Nord S/SE 18.5
30 Agosto 2026 18:15 tempo osservato: Sereno Sereno 32 62 1012 vento: Nord SE 16.7
30 Agosto 2026 17:55 tempo osservato: Sereno Sereno 33 59 1012 vento: Nord SE 18.5
30 Agosto 2026 17:35 tempo osservato: Sereno Sereno 33 59 1012 vento: Nord S/SE 18.5
30 Agosto 2026 17:15 tempo osservato: Poco Nuvoloso Poco Nuvoloso 33 59 1012 vento: Nord S/SE 20.3
30 Agosto 2026 16:55 tempo osservato: Foschia Foschia 33 59 1012 vento: Nord S/SE 20.3
30 Agosto 2026 16:35 tempo osservato: Sereno Sereno 34 56 1012 vento: Nord S 25.9
30 Agosto 2026 16:15 tempo osservato: Sereno Sereno 34 59 1012 vento: Nord S 20.3
30 Agosto 2026 15:55 tempo osservato: Nuvoloso Nuvoloso 35 56 1013 vento: Nord S 25.9
30 Agosto 2026 15:35 tempo osservato: Molto Nuvoloso Molto Nuvoloso 35 56 1013 vento: Nord S 25.9
30 Agosto 2026 15:15 tempo osservato: Poco Nuvoloso Poco Nuvoloso 35 56 1013 vento: Nord S/SE 20.3
30 Agosto 2026 14:55 tempo osservato: Sereno Sereno 33 62 1013 vento: Nord S 9.3
30 Agosto 2026 14:35 tempo osservato: Nuvoloso Nuvoloso 33 62 1014 vento: Nord SO 14.8
30 Agosto 2026 14:15 tempo osservato: Nuvoloso Nuvoloso 32 62 1014 vento: Nord S 11.1
30 Agosto 2026 13:55 tempo osservato: Poco Nuvoloso Poco Nuvoloso 34 59 1014 vento: Nord S 14.8
30 Agosto 2026 13:35 tempo osservato: Nuvoloso Nuvoloso 35 53 1014 vento: Nord S/SE 13
30 Agosto 2026 13:15 tempo osservato: Molto Nuvoloso Molto Nuvoloso 35 53 1015 vento: Nord S/SE 13
30 Agosto 2026 12:55 tempo osservato: Nuvoloso Nuvoloso 34 52 1015 vento: Nord N 9.3
30 Agosto 2026 12:35 tempo osservato: Molto Nuvoloso Molto Nuvoloso 34 56 1015 vento: Nord E 11.1
30 Agosto 2026 12:15 tempo osservato: Molto Nuvoloso Molto Nuvoloso 34 56 1015 vento: Nord E 14.8
30 Agosto 2026 11:55 tempo osservato: Nuvoloso Nuvoloso 33 62 1015 vento: Nord E/NE 9.3
30 Agosto 2026 11:35 tempo osservato: Molto Nuvoloso Molto Nuvoloso 33 62 1015 vento: Nord N 0
30 Agosto 2026 11:15 tempo osservato: Nuvoloso Nuvoloso 33 59 1015 vento: Nord E 9.3
30 Agosto 2026 10:55 tempo osservato: Poco Nuvoloso Poco Nuvoloso 32 66 1015 vento: Nord E 7.4
30 Agosto 2026 10:35 tempo osservato: Nuvoloso Nuvoloso 31 70 1016 vento: Nord S/SO 7.4
30 Agosto 2026 10:15 tempo osservato: Poco Nuvoloso Poco Nuvoloso 31 74 1016 vento: Nord N 0
30 Agosto 2026 09:55 tempo osservato: Sereno Sereno 31 74 1015 vento: Nord E 9.3
30 Agosto 2026 09:35 tempo osservato: Sereno Sereno 30 84 1016 vento: Nord N 0
30 Agosto 2026 09:15 tempo osservato: Sereno Sereno 29 89 1016 vento: Nord N 5.5
30 Agosto 2026 08:55 tempo osservato: Sereno Sereno 27 100 1015 vento: Nord N 5.5
30 Agosto 2026 08:35 tempo osservato: Foschia Foschia 26 100 1015 vento: Nord N 5.5
30 Agosto 2026 08:15 tempo osservato: Foschia Foschia 25 100 1015 vento: Nord N 5.5
30 Agosto 2026 07:55 tempo osservato: Nebbia Nebbia 24 100 1015 vento: Nord E/NE 7.4
30 Agosto 2026 07:35 tempo osservato: Foschia Foschia 23 100 1015 vento: Nord NE 7.4
30 Agosto 2026 07:15 tempo osservato: Foschia Foschia 23 100 1015 vento: Nord NE 7.4
30 Agosto 2026 06:55 tempo osservato: Foschia Foschia 22 100 1014 vento: Nord E/NE 7.4
30 Agosto 2026 06:35 tempo osservato: Foschia Foschia 22 100 1014 vento: Nord N 5.5
30 Agosto 2026 06:15 tempo osservato: Foschia Foschia 22 100 1014 vento: Nord N 0
30 Agosto 2026 05:55 tempo osservato: Foschia Foschia 22 100 1014 vento: Nord N 0
30 Agosto 2026 05:35 tempo osservato: Sereno Sereno 22 100 1014 vento: Nord N 0
30 Agosto 2026 05:15 tempo osservato: Sereno Sereno 23 100 1014 vento: Nord N 0
30 Agosto 2026 04:55 tempo osservato: Foschia Foschia 23 100 1014 vento: Nord N 0
30 Agosto 2026 04:35 tempo osservato: Sereno Sereno 23 100 1014 vento: Nord N 0
30 Agosto 2026 04:15 tempo osservato: Sereno Sereno 23 100 1014 vento: Nord N 0
30 Agosto 2026 03:55 tempo osservato: Foschia Foschia 23 100 1014 vento: Nord N 0
30 Agosto 2026 03:35 tempo osservato: Sereno Sereno 23 100 1014 vento: Nord N 0
30 Agosto 2026 03:15 tempo osservato: Foschia Foschia 23 100 1014 vento: Nord N 0
30 Agosto 2026 02:55 tempo osservato: Sereno Sereno 24 100 1014 vento: Nord N 0
30 Agosto 2026 02:35 tempo osservato: Sereno Sereno 24 100 1014 vento: Nord N 0
30 Agosto 2026 02:15 tempo osservato: Sereno Sereno 24 100 1014 vento: Nord N 0
30 Agosto 2026 01:55 tempo osservato: Sereno Sereno 23 100 1014 vento: Nord N 0
30 Agosto 2026 01:35 tempo osservato: Foschia Foschia 24 100 1014 vento: Nord N 5.5